Location: Aztalan State Park
(43.0642°N, 88.8607°W)
Time: 20:04:20
(UTC-06:00)

Tiangong 1 - Visible Passes

Search period start: 19 November 2017 00:00
Search period end: 29 November 2017 00:00
Orbit: 285 x 309 km, 42.8° (Epoch: 19 November)

Date Brightness Start Highest point End Pass type
(mag) Time Alt. Az. Time Alt. Az. Time Alt. Az.
24 Nov 3.2 18:15:13 10° SSW 18:16:03 15° SSW 18:16:03 15° SSW visible
25 Nov 3.0 18:21:16 10° SW 18:22:23 20° SSW 18:22:23 20° SSW visible
26 Nov 3.2 18:27:29 10° WSW 18:28:33 21° WSW 18:28:33 21° WSW visible
27 Nov 2.3 16:59:35 10° SSW 17:01:46 24° SSE 17:03:56 10° E visible
27 Nov 3.6 18:33:43 10° WSW 18:34:34 18° WSW 18:34:34 18° WSW visible
28 Nov 1.5 17:05:24 10° SW 17:07:51 39° SSE 17:10:06 12° E visible
28 Nov 3.9 18:39:54 10° W 18:40:28 15° W 18:40:28 15° W visible
